This is the latest recevied weather packets stored in our database for station/object KQ4OSL. If no packets are shown the sender has not sent any weather packets the latest 10 day(s).
| Time | Temp. | Humidity | Pressure | Rain* | Wind** | Luminosity | Snow |
|---|---|---|---|---|---|---|---|
| 1788048565 | 26.11° C | 87% | 1020.7 hPa | 0 mm | - | 2 W/m² | - |
| 1788048262 | 26.11° C | 86% | 1020.9 hPa | 0 mm | - | 4 W/m² | - |
| 1788047960 | 26.67° C | 85% | 1020.9 hPa | 0 mm | - | 6 W/m² | - |
| 1788047655 | 26.67° C | 84% | 1020.9 hPa | 0 mm | - | 9 W/m² | - |
| 1788047354 | 27.22° C | 83% | 1020.8 hPa | 0 mm | - | 11 W/m² | - |
| 1788047050 | 27.22° C | 82% | 1020.9 hPa | 0 mm | - | 14 W/m² | - |
| 1788046750 | 27.78° C | 82% | 1021 hPa | 0 mm | - | 17 W/m² | - |
| 1788046449 | 27.78° C | 80% | 1020.9 hPa | 0 mm | - | 20 W/m² | - |
| 1788046148 | 27.78° C | 80% | 1021 hPa | 0 mm | - | 24 W/m² | - |
| 1788045842 | 28.33° C | 81% | 1020.8 hPa | 0 mm | - | 28 W/m² | - |
| 1788045538 | 28.33° C | 79% | 1021 hPa | 0 mm | - | 30 W/m² | - |
| 1788045233 | 28.89° C | 78% | 1021 hPa | 0 mm | - | 30 W/m² | - |
| 1788044928 | 28.89° C | 77% | 1021 hPa | 0 mm | - | 33 W/m² | - |
| 1788044627 | 28.89° C | 77% | 1021 hPa | 0 mm | - | 35 W/m² | - |
| 1788044326 | 29.44° C | 75% | 1021.1 hPa | 0 mm | - | 36 W/m² | - |
| 1788044023 | 29.44° C | 75% | 1021.1 hPa | 0 mm | - | 48 W/m² | - |
| 1788043718 | 29.44° C | 76% | 1021.1 hPa | 0 mm | - | 47 W/m² | - |
| 1788043413 | 29.44° C | 76% | 1021.2 hPa | 0 mm | - | 46 W/m² | - |
| 1788043112 | 29.44° C | 75% | 1020.8 hPa | 0 mm | - | 44 W/m² | - |
| 1788042808 | 29.44° C | 76% | 1020.9 hPa | 0 mm | - | 51 W/m² | - |
| 1788042507 | 29.44° C | 73% | 1020.9 hPa | 0 mm | - | 72 W/m² | - |
| 1788042202 | 29.44° C | 74% | 1020.6 hPa | 0 mm | - | 86 W/m² | - |
| 1788041898 | 29.44° C | 74% | 1020.8 hPa | 0 mm | - | 71 W/m² | - |
| 1788041593 | 29.44° C | 76% | 1020.7 hPa | 0 mm | - | 75 W/m² | - |
| 1788041293 | 29.44° C | 74% | 1020.7 hPa | 0 mm | - | 66 W/m² | - |
* Rain latest hour (hover to see other rain measurements)
** Current wind speed in m/s (hover to see current wind gust speed)